Flag for Pakistan Weather past 2 weeks in Lahore, Pakistan

63 °F

Passing clouds.

Feels Like: 63 °F
Forecast: 54 / 71 °F
Wind: 3 mph from North

Location: Lahore Airport

Current Time: Nov 26, 2015 at 11:00:46 PM

Latest Report: Nov 26, 2015 at 10:25 PM

Visibility: 2 mi

Pressure: 29.92 "Hg

Humidity: 59%

Dew point: 48 °F

Location of LahoreLocation

Historic Weather in Lahore — Graph


Lahore temperature yesterday

Maximum temperature yesterday: 79 °F (at 1:55 PM)
Minimum temperature yesterday: 52 °F (at 6:25 AM)
Average temperature yesterday: 66 °F

Past Weeks' High & Low Weather Summary

High82 °F (Nov 15, 2:25 PM)94% (Nov 18, 7:30 AM)30.15 "Hg (Nov 18, 7:30 AM)
Low52 °F (Nov 18, 7:30 AM)23% (Nov 19, 2:55 PM)29.89 "Hg (Nov 14, 2:25 PM)
Average68 °F58%30.00 "Hg
* Reported Nov 11 9:25 PM — Nov 26 9:55 PM, Lahore, Weather by CustomWeather, © 2015

Note: Actual official high and low records may vary slightly from our data, if they occured in-between our weather recording intervals... More about our weather records


Lahore weather history for previous 24 hours

Time TempWeatherWind HumidityBarometerVisibility
9:55 PM
Thu, Nov 26
63 °FPassing clouds.No wind59%29.95 "Hg2 mi
9:25 PM63 °FPassing clouds.No wind56%29.95 "Hg2 mi
8:55 PM63 °FPassing clouds.5 mph56%29.95 "Hg2 mi
8:25 PM64 °FHaze.6 mph49%29.95 "Hg2 mi
7:55 PM64 °FHaze.5 mph49%29.95 "Hg2 mi
7:25 PM66 °FPassing clouds.9 mph46%29.95 "Hg2 mi
6:55 PM66 °FPassing clouds.9 mph46%29.95 "Hg2 mi
6:25 PM66 °FPassing clouds.12 mph46%29.92 "Hg2 mi
5:55 PM68 °FPassing clouds.16 mph43%29.92 "Hg2 mi
4:25 PM73 °FScattered clouds.16 mph36%29.92 "Hg2 mi
4:00 PM75 °FScattered clouds.14 mph34%29.92 "Hg3 mi
3:55 PM75 °FScattered clouds.9 mph34%29.92 "Hg4 mi
3:25 PM77 °FScattered clouds.9 mph32%29.92 "Hg4 mi
2:55 PM77 °FScattered clouds.3 mph32%29.92 "Hg4 mi
2:25 PM77 °FScattered clouds.3 mph32%29.92 "Hg4 mi
1:55 PM75 °FPassing clouds.3 mph34%29.92 "Hg4 mi
1:25 PM75 °FPassing clouds.5 mph34%29.95 "Hg4 mi
12:55 PM75 °FHaze.3 mph34%29.95 "Hg3 mi
12:25 PM73 °FHaze.6 mph36%29.95 "Hg3 mi
11:55 AM73 °FHaze.3 mph36%29.98 "Hg2 mi
11:25 AM72 °FHaze.6 mph38%29.98 "Hg2 mi
10:55 AM70 °FHaze.6 mph40%29.98 "Hg2 mi
10:25 AM68 °FScattered clouds.7 mph43%30.01 "Hg2 mi
9:55 AM64 °FScattered clouds.6 mph52%30.01 "Hg1 mi
9:25 AM61 °FScattered clouds.3 mph59%29.98 "Hg2 mi
8:55 AM59 °FScattered clouds.No wind63%29.98 "Hg2 mi
8:00 AM55 °FScattered clouds.3 mph77%29.98 "Hg2 mi
7:30 AM54 °FBroken clouds.5 mph82%29.95 "Hg2 mi
5:00 AM55 °FPassing clouds.3 mph77%29.92 "Hg2 mi
4:30 AM57 °FPassing clouds.No wind77%29.95 "Hg2 mi
4:00 AM57 °FPartly cloudy.No wind77%29.95 "Hg2 mi
3:30 AM59 °FPartly cloudy.No wind72%29.95 "Hg2 mi
3:00 AM59 °FPartly cloudy.No wind72%29.95 "Hg2 mi
2:30 AM59 °FPartly cloudy.No wind72%29.95 "Hg2 mi
2:00 AM63 °FPassing clouds.No wind68%29.98 "Hg2 mi
1:30 AM61 °FPartly cloudy.5 mph68%29.98 "Hg2 mi
1:00 AM63 °FPassing clouds.No wind68%29.98 "Hg2 mi
12:30 AM63 °FPassing clouds.No wind68%29.98 "Hg2 mi
12:00 AM63 °FPassing clouds.No wind68%29.98 "Hg2 mi
11:30 PM
Wed, Nov 25
64 °FPassing clouds.No wind64%29.98 "Hg2 mi
11:00 PM64 °FPassing clouds.No wind64%29.98 "Hg2 mi
Weather by CustomWeather, © 2015

See weather overviewHow to use our weather pages